Flag for U.S.A. Weather past 2 weeks in Narragansett, Rhode Island, U.S.A.

Now
62 °F

Clear.


Feels Like: 62 °F
Forecast: 62 / 76 °F
Wind: No wind

Location: Newport State Airport

Current Time: Jul 30, 2014 at 1:58:37 AM

Latest Report: Jul 30, 2014 at 12:53 AM


Visibility: 10 mi

Pressure: 29.97 "Hg

Humidity: 86%

Dew point: 58 °F

Location of NarragansettLocation

Historic Weather in Narragansett — Graph

°F

Narragansett temperature yesterday

Maximum temperature yesterday: 77 °F (at 3:53 PM)
Minimum temperature yesterday: 63 °F (at 5:53 AM)
Average temperature yesterday: 69 °F

Past Weeks' High & Low Weather Summary

 TemperatureHumidityPressure
High81 °F (Jul 22, 12:53 PM)97% (Jul 15, 12:53 AM)30.27 "Hg (Jul 15, 12:53 AM)
Low61 °F (Jul 18, 3:53 AM)39% (Jul 18, 12:53 PM)29.49 "Hg (Jul 28, 3:53 PM)
Average70 °F80%29.94 "Hg
* Reported Jul 15 12:53 AM — Jul 30 12:53 AM, Narragansett, Weather by CustomWeather, © 2014

Note: Actual official high and low records may vary slightly from our data, if they occured in-between our weather recording intervals... More about our weather records

Advertising

Narragansett weather history for previous 24 hours

 ConditionsComfort  
Time TempWeatherWind HumidityBarometerVisibility
12:53 AM
Jul 30
62 °FClear.No wind86%29.97 "Hg10 mi
11:53 PM
Jul 29
65 °FClear.No wind81%29.96 "Hg10 mi
10:53 PM66 °FClear.3 mph78%29.94 "Hg10 mi
9:53 PM68 °FClear.No wind70%29.93 "Hg10 mi
8:53 PM68 °FSunny.3 mph76%29.92 "Hg10 mi
7:53 PM70 °FSunny.5 mph68%29.91 "Hg10 mi
6:53 PM74 °FPartly sunny.No wind56%29.90 "Hg10 mi
5:53 PM74 °FSunny.8 mph57%29.88 "Hg10 mi
4:53 PM75 °FSunny.7 mph55%29.86 "Hg10 mi
3:53 PM77 °FPartly sunny.6 mph50%29.84 "Hg10 mi
2:53 PM76 °FScattered clouds.5 mph62%29.83 "Hg10 mi
12:53 PM73 °FMild.12 mph66%29.82 "HgN/A
9:53 AM69 °FSunny.6 mph70%29.79 "Hg10 mi
8:53 AM68 °FSunny.8 mph70%29.78 "Hg10 mi
7:53 AM66 °FSunny.8 mph75%29.77 "Hg10 mi
6:53 AM64 °FSunny.7 mph81%29.75 "Hg10 mi
5:53 AM63 °FClear.7 mph84%29.72 "Hg10 mi
4:53 AM64 °FPassing clouds.6 mph84%29.70 "Hg10 mi
3:53 AM65 °FClear.6 mph85%29.67 "Hg10 mi
2:53 AM66 °FClear.6 mph81%29.65 "Hg10 mi
1:53 AM68 °FPassing clouds.5 mph78%29.63 "Hg10 mi
Weather by CustomWeather, © 2014

See weather overviewHow to use our weather pages